TimeCST,TemperatureF,Dew PointF,Humidity,Sea Level PressureIn,VisibilityMPH,Wind Direction,Wind SpeedMPH,Gust SpeedMPH,PrecipitationIn,Events,Conditions,WindDirDegrees,DateUTC
12:53 AM,51.1,46.9,86,30.24,4.0,SW,3.5,-,N/A,,Clear,230,2005-01-20 06:53:00
1:17 AM,50.0,46.4,87,30.22,2.0,Calm,Calm,-,N/A,,Clear,0,2005-01-20 07:17:00
1:29 AM,46.4,44.6,93,30.22,4.0,Calm,Calm,-,N/A,,Clear,0,2005-01-20 07:29:00
1:53 AM,46.0,44.1,93,30.23,2.5,Calm,Calm,-,N/A,,Clear,0,2005-01-20 07:53:00
1:57 AM,46.4,44.6,93,30.21,4.0,Calm,Calm,-,N/A,,Partly Cloudy,0,2005-01-20 07:57:00
2:12 AM,44.6,42.8,93,30.21,8.0,Calm,Calm,-,N/A,,Mostly Cloudy,0,2005-01-20 08:12:00
2:19 AM,46.4,42.8,87,30.20,5.0,Calm,Calm,-,N/A,,Mostly Cloudy,0,2005-01-20 08:19:00
2:25 AM,44.6,42.8,93,30.20,1.8,Calm,Calm,-,N/A,,Overcast,0,2005-01-20 08:25:00
2:32 AM,44.6,42.8,93,30.19,4.0,Calm,Calm,-,N/A,,Overcast,0,2005-01-20 08:32:00
2:34 AM,44.6,42.8,93,30.19,1.0,Calm,Calm,-,N/A,,Overcast,0,2005-01-20 08:34:00
2:41 AM,44.6,42.8,93,30.19,0.8,Calm,Calm,-,N/A,,Mist,0,2005-01-20 08:41:00
2:53 AM,44.1,42.1,93,30.21,0.2,Calm,Calm,-,N/A,Fog,Fog,0,2005-01-20 08:53:00
3:07 AM,44.6,42.8,93,30.19,1.2,North,3.5,-,N/A,,Overcast,360,2005-01-20 09:07:00
3:09 AM,44.6,42.8,93,30.19,3.0,Calm,Calm,-,N/A,,Overcast,0,2005-01-20 09:09:00
3:18 AM,46.4,42.8,87,30.19,1.5,Calm,Calm,-,N/A,,Overcast,0,2005-01-20 09:18:00
3:26 AM,46.4,44.6,93,30.20,0.2,North,3.5,-,N/A,Fog,Fog,350,2005-01-20 09:26:00
3:34 AM,46.4,44.6,93,30.20,1.0,Calm,Calm,-,N/A,,Overcast,0,2005-01-20 09:34:00
3:37 AM,46.4,44.6,93,30.20,3.0,Calm,Calm,-,N/A,,Overcast,0,2005-01-20 09:37:00
3:53 AM,48.9,46.9,93,30.21,4.0,NNE,3.5,-,N/A,,Overcast,20,2005-01-20 09:53:00
4:22 AM,48.2,46.4,93,30.18,2.5,Calm,Calm,-,N/A,,Overcast,0,2005-01-20 10:22:00
4:53 AM,50.0,46.9,89,30.18,2.0,Calm,Calm,-,N/A,,Overcast,0,2005-01-20 10:53:00
5:06 AM,50.0,48.2,94,30.17,1.2,Calm,Calm,-,N/A,,Overcast,0,2005-01-20 11:06:00
5:13 AM,50.0,48.2,94,30.17,0.8,Calm,Calm,-,N/A,,Mist,0,2005-01-20 11:13:00
5:29 AM,50.0,48.2,94,30.17,0.2,Calm,Calm,-,N/A,Fog,Fog,0,2005-01-20 11:29:00
6:53 AM,50.0,48.9,96,30.19,0.2,Calm,Calm,-,N/A,Fog,Fog,0,2005-01-20 12:53:00
7:53 AM,51.1,50.0,96,30.19,0.2,SSW,3.5,-,N/A,Fog,Fog,210,2005-01-20 13:53:00
8:53 AM,52.0,51.1,97,30.20,0.2,Calm,Calm,-,N/A,Fog,Fog,0,2005-01-20 14:53:00
9:53 AM,54.0,52.0,93,30.21,0.8,WSW,3.5,-,N/A,,Overcast,250,2005-01-20 15:53:00
10:21 AM,55.4,53.6,94,30.19,2.5,Calm,Calm,-,N/A,,Overcast,0,2005-01-20 16:21:00
10:25 AM,55.4,53.6,94,30.19,3.0,SW,3.5,-,N/A,,Scattered Clouds,220,2005-01-20 16:25:00
10:53 AM,57.9,54.0,87,30.18,9.0,SW,8.1,-,N/A,,Clear,230,2005-01-20 16:53:00
11:53 AM,69.1,54.0,58,30.14,10.0,WSW,10.4,-,N/A,,Clear,250,2005-01-20 17:53:00
12:53 PM,72.0,53.1,51,30.09,10.0,WSW,13.8,18.4,N/A,,Clear,240,2005-01-20 18:53:00
1:53 PM,72.0,53.1,51,30.06,10.0,WSW,12.7,-,N/A,,Scattered Clouds,250,2005-01-20 19:53:00
2:53 PM,71.1,53.1,53,30.04,10.0,West,9.2,-,N/A,,Partly Cloudy,260,2005-01-20 20:53:00
3:53 PM,72.0,52.0,49,30.03,10.0,West,12.7,-,N/A,,Partly Cloudy,260,2005-01-20 21:53:00
4:53 PM,69.1,54.0,58,30.02,10.0,WSW,8.1,-,N/A,,Clear,250,2005-01-20 22:53:00
5:53 PM,64.9,53.1,65,30.03,10.0,WSW,5.8,-,N/A,,Clear,250,2005-01-20 23:53:00
6:53 PM,57.9,52.0,81,30.03,10.0,SW,3.5,-,N/A,,Clear,220,2005-01-21 00:53:00
7:53 PM,59.0,52.0,78,30.04,10.0,Calm,Calm,-,N/A,,Clear,0,2005-01-21 01:53:00
8:53 PM,57.9,52.0,81,30.04,10.0,Calm,Calm,-,N/A,,Clear,0,2005-01-21 02:53:00
9:53 PM,55.9,52.0,87,30.03,10.0,Calm,Calm,-,N/A,,Clear,0,2005-01-21 03:53:00
10:53 PM,55.0,51.1,86,30.03,8.0,Calm,Calm,-,N/A,,Clear,0,2005-01-21 04:53:00
11:53 PM,55.9,52.0,87,30.03,9.0,SW,3.5,-,N/A,,Clear,230,2005-01-21 05:53:00